Simultaneous Nadir Overpasses (SNOs) Predictions

Prediction of SNOs between METOP-B and NOAA-19 Satellite Orbit:

Table of predicted SNOs for the next 14.0 days since TLE Epoch: 9/7/2024
Index Date (METOP-B) Time (METOP-B) Lat,Lon (METOP-B) SZA (METOP-B ) Date (NOAA-19) Time (NOAA-19) Lat,Lon (NOAA-19) SZA (NOAA-19 ) Distance(km) Time Diff (sec)
1 09/10/2024 19:40:27 -81.42, 113.14 100.13 09/10/2024 19:39:12 -80.99, 113.06 100.45 47.73 75
2 09/10/2024 20:27:01 73.34, -17.26 91.41 09/10/2024 20:25:59 73.34, -17.27 91.34 0.28 62
3 09/10/2024 21:17:28 -72.70, 151.42 87.99 09/10/2024 21:16:46 -72.70, 151.43 88.04 0.39 42
4 09/10/2024 22:08:02 72.29, -40.44 92.40 09/10/2024 22:07:36 72.32, -40.49 92.35 3.01 26
5 09/10/2024 22:58:31 -71.75, 127.90 87.10 09/10/2024 22:58:25 -71.77, 127.84 87.13 2.95 6
6 09/10/2024 23:48:56 70.86, -63.24 93.72 09/10/2024 23:49:05 70.86, -63.22 93.73 0.76 9
7 09/11/2024 00:39:19 -70.00, 105.45 85.51 09/11/2024 00:39:48 -70.00, 105.44 85.48 0.26 29
8 09/11/2024 01:29:48 69.29, -86.21 95.12 09/11/2024 01:30:33 69.31, -86.24 95.17 2.17 45



Historial Predications of SNOs between METOP-B and NOAA-19
